Date_and_time,latitude,longitude,wind_speed,RelWindDirFrom,WindDirFrom,air_pressure,air_temperature,relative_humidity,Temp,platform_speed_wrt_ground,air_pressure_at_mean_sea_level,platform_orientation
2019-11-10 23:50,50.6304416666667,-96.98077,6.2,9.7,322,1004.45,-13.4,77,1.05,0.0,1034.16,142.0
2019-11-11 00:00,50.6304416666667,-96.9807716666667,6.6,9.5,332,1004.56,-13.4,77,1.03,0.0,1034.28,316.8
2019-11-11 00:10,50.6304416666667,-96.9807716666667,8.4,12.7,334,1004.66,-13.6,76,1.04,0.0,1034.40,316.8
2019-11-11 00:20,50.6304416666667,-96.9807716666667,8.3,11.0,331,1004.79,-13.8,76,1.05,0.0,1034.55,316.8
2019-11-11 00:30,50.6304416666667,-96.9807733333333,8.4,12.0,331,1004.88,-13.9,76,1.07,0.0,1034.65,316.8
2019-11-11 00:40,50.6304416666667,-96.98076,7.6,11.3,329,1004.97,-14.0,78,1.06,0.0,1034.76,316.8
2019-11-11 00:50,50.6304583333333,-96.9807566666667,7.0,10.0,320,1005.03,-14.2,77,1.04,0.0,1034.85,316.8
2019-11-11 01:00,50.6304416666667,-96.9807683333333,7.2,10.7,314,1005.06,-14.3,77,1.03,0.0,1034.89,38.0
2019-11-11 01:10,50.6304366666667,-96.98077,7.8,11.2,317,1005.15,-14.3,76,1.04,0.0,1035.00,38.0
2019-11-11 01:20,50.6304333333333,-96.98077,7.1,11.8,307,1005.29,-14.4,75,1.04,0.0,1035.16,38.0
2019-11-11 01:30,50.6304316666667,-96.98077,7.6,11.2,299,1005.30,-14.8,68,1.03,0.0,1035.21,38.0
2019-11-11 01:40,50.6304216666667,-96.9807683333333,7.1,10.0,301,1005.40,-15.0,66,1.03,0.0,1035.33,38.0
2019-11-11 01:50,50.6304316666667,-96.9807866666667,7.3,10.3,295,1005.35,-15.3,65,1.02,0.0,1035.30,38.0
2019-11-11 02:00,50.630435,-96.9807816666667,7.1,11.2,299,1005.39,-15.5,65,1.01,0.0,1035.37,270.0
2019-11-11 02:10,50.6304383333333,-96.9807816666667,7.6,11.1,298,1005.44,-15.7,65,1.03,0.0,1035.44,270.0
2019-11-11 02:20,50.6304083333333,-96.9807533333333,7.1,10.7,300,1005.51,-15.9,65,1.04,0.0,1035.53,270.0
2019-11-11 02:30,50.63043,-96.9807666666667,8.0,12.5,302,1005.55,-16.0,65,1.04,0.0,1035.58,270.0
2019-11-11 02:40,50.6304333333333,-96.9807666666667,7.8,10.3,303,1005.61,-16.1,64,1.04,0.0,1035.66,270.0
2019-11-11 02:50,50.6304366666667,-96.9807683333333,8.7,12.6,302,1005.65,-16.2,64,1.05,0.0,1035.72,270.0
2019-11-11 03:00,50.630435,-96.9807716666667,7.9,12.1,300,1005.76,-16.3,64,1.05,0.0,1035.84,142.0
2019-11-11 03:10,50.6304383333333,-96.980775,8.4,12.5,304,1005.82,-16.4,64,1.05,0.0,1035.91,142.0
2019-11-11 03:20,50.63044,-96.9807833333333,9.0,11.7,308,1005.96,-16.5,64,1.03,0.0,1036.07,142.0
2019-11-11 03:30,50.6304433333333,-96.9807683333333,8.6,12.8,301,1005.94,-16.5,64,1.03,0.0,1036.08,142.0
2019-11-11 03:40,50.630445,-96.98077,9.2,14.7,302,1005.99,-16.5,64,1.05,0.0,1036.15,142.0
2019-11-11 03:50,50.6304433333333,-96.98077,9.0,13.1,296,1006.00,-16.5,64,1.04,0.0,1036.16,142.0
2019-11-11 04:00,50.6304433333333,-96.98077,8.6,12.6,297,1006.04,-16.5,64,1.03,0.0,1036.22,0.0
2019-11-11 04:10,50.6304433333333,-96.9807666666667,8.3,13.4,296,1006.11,-16.5,64,1.02,0.0,1036.30,0.0
2019-11-11 04:20,50.63045,-96.9807833333333,8.6,13.9,300,1006.23,-16.5,64,1.01,0.0,1036.43,0.0
2019-11-11 04:30,50.63045,-96.980775,7.5,10.8,295,1006.31,-16.6,65,1.02,0.0,1036.53,0.0
2019-11-11 04:40,50.6304416666667,-96.9807583333333,6.5,10.0,295,1006.41,-16.7,65,1.04,0.0,1036.64,0.0
2019-11-11 04:50,50.6304433333333,-96.9807683333333,6.6,9.1,292,1006.44,-16.7,65,1.05,0.0,1036.68,0.0
2019-11-11 05:00,50.630445,-96.9807683333333,5.6,8.4,293,1006.51,-16.7,66,1.04,0.0,1036.76,68.5
2019-11-11 05:10,50.630445,-96.9807683333333,6.2,8.8,293,1006.47,-16.7,66,1.05,0.0,1036.71,68.5
2019-11-11 05:20,50.6304466666667,-96.98077,5.9,9.6,296,1006.49,-16.6,66,1.05,0.0,1036.73,68.5
2019-11-11 05:30,50.6304466666667,-96.9807716666667,4.7,8.3,303,1006.60,-16.5,66,1.05,0.0,1036.85,68.5
2019-11-11 05:40,50.6304583333333,-96.9807633333333,4.7,8.0,303,1006.59,-16.4,66,1.05,0.0,1036.83,68.5
2019-11-11 05:50,50.6304566666667,-96.98077,5.8,9.7,302,1006.50,-16.3,66,1.05,0.0,1036.73,68.5
2019-11-11 06:00,50.6304516666667,-96.9807633333333,5.2,8.1,296,1006.62,-16.3,65,1.04,0.0,1036.85,360.0
2019-11-11 06:10,50.63045,-96.98076,5.2,8.7,291,1006.68,-16.3,65,1.03,0.0,1036.91,360.0
2019-11-11 06:20,50.6304566666667,-96.9807583333333,5.1,8.3,296,1006.77,-16.2,66,1.03,0.0,1037.00,360.0
2019-11-11 06:30,50.6304533333333,-96.9807616666667,5.4,8.2,293,1006.80,-16.3,65,1.02,0.0,1037.04,360.0
2019-11-11 06:40,50.6304516666667,-96.9807616666667,5.6,8.4,289,1006.83,-16.3,66,1.02,0.0,1037.08,360.0
2019-11-11 06:50,50.6304383333333,-96.9807516666667,5.3,7.8,292,1006.89,-16.2,66,1.01,0.0,1037.14,360.0
2019-11-11 07:00,50.63045,-96.980755,5.8,9.3,290,1006.96,-16.3,66,1.01,0.0,1037.21,360.0
2019-11-11 07:10,50.6304516666667,-96.9807616666667,4.7,8.8,284,1007.05,-16.3,66,1.00,0.0,1037.30,360.0
2019-11-11 07:20,50.63045,-96.980765,4.9,7.4,271,1007.11,-16.4,67,0.99,0.0,1037.37,360.0
2019-11-11 07:30,50.6304516666667,-96.980765,4.7,7.2,271,1007.19,-16.7,68,0.98,0.0,1037.45,360.0
2019-11-11 07:40,50.6304516666667,-96.980765,4.6,7.2,267,1007.25,-16.8,69,0.98,0.0,1037.52,360.0
2019-11-11 07:50,50.6304516666667,-96.980765,4.5,6.2,261,1007.25,-17.0,69,0.98,0.0,1037.52,360.0
2019-11-11 08:00,50.63045,-96.980765,4.4,6.7,263,1007.24,-17.1,69,0.98,0.0,1037.52,360.0
2019-11-11 08:10,50.630435,-96.98073,3.1,4.5,249,1007.32,-17.3,70,0.99,0.0,1037.61,360.0
2019-11-11 08:20,50.6304483333333,-96.9807733333333,2.9,4.8,252,1007.38,-17.5,72,1.00,0.0,1037.69,360.0
2019-11-11 08:30,50.6304116666667,-96.9807583333333,2.7,4.5,244,1007.39,-17.6,73,1.00,0.0,1037.71,360.0
2019-11-11 08:40,50.6304683333333,-96.98079,3.5,4.4,243,1007.38,-17.7,74,1.01,0.0,1037.70,360.0
2019-11-11 08:50,50.63045,-96.9807683333333,3.7,5.1,253,1007.42,-17.8,75,1.01,0.0,1037.76,360.0
2019-11-11 09:00,50.6304433333333,-96.9807733333333,4.2,6.5,257,1007.37,-17.8,75,1.01,0.0,1037.70,360.0
2019-11-11 09:10,50.6304466666667,-96.98078,4.2,6.7,258,1007.40,-17.7,75,1.02,0.0,1037.73,360.0
2019-11-11 09:20,50.6304483333333,-96.980775,4.8,7.3,265,1007.38,-17.6,75,1.03,0.0,1037.72,360.0
2019-11-11 09:30,50.6304483333333,-96.9807733333333,4.4,6.5,265,1007.39,-17.5,76,1.03,0.0,1037.73,360.0
2019-11-11 09:40,50.6304483333333,-96.98077,3.8,5.6,259,1007.45,-17.5,76,1.04,0.0,1037.80,360.0
2019-11-11 09:50,50.63045,-96.98077,5.1,6.5,251,1007.44,-17.6,77,1.04,0.0,1037.81,360.0
2019-11-11 10:00,50.6304483333333,-96.9807716666667,5.5,7.1,246,1007.45,-17.7,77,1.04,0.0,1037.83,234.7
2019-11-11 10:10,50.6304466666667,-96.9807733333333,4.2,5.8,242,1007.54,-17.6,78,1.05,0.0,1037.94,234.7
2019-11-11 10:20,50.630435,-96.9807533333333,3.7,5.5,249,1007.69,-17.6,78,1.06,0.0,1038.09,234.7
2019-11-11 10:30,50.63044,-96.980765,3.5,6.3,262,1007.72,-17.5,78,1.06,0.0,1038.12,234.7
2019-11-11 10:40,50.6304383333333,-96.9807683333333,4.7,6.4,258,1007.64,-17.5,79,1.06,0.0,1038.05,234.7
2019-11-11 10:50,50.63044,-96.9807716666667,4.9,7.2,262,1007.61,-17.5,79,1.06,0.0,1038.03,234.7
2019-11-11 11:00,50.6304416666667,-96.98079,5.2,7.7,263,1007.63,-17.4,79,1.06,0.0,1038.03,234.7
2019-11-11 11:10,50.6304483333333,-96.9807833333333,4.6,7.0,264,1007.66,-17.4,79,1.05,0.0,1038.06,234.7
2019-11-11 11:20,50.6304466666667,-96.98078,4.7,6.7,263,1007.70,-17.3,79,1.05,0.0,1038.09,234.7
2019-11-11 11:30,50.63045,-96.9807783333333,4.3,6.4,267,1007.76,-17.2,79,1.05,0.0,1038.14,234.7
2019-11-11 11:40,50.63045,-96.9807766666667,4.3,6.9,267,1007.77,-17.0,78,1.05,0.0,1038.15,234.7
2019-11-11 11:50,50.63045,-96.9807766666667,3.0,4.6,273,1007.83,-16.9,78,1.05,0.0,1038.20,234.7
2019-11-11 12:00,50.63045,-96.9807766666667,3.7,5.1,280,1007.90,-17.0,78,1.03,0.0,1038.27,360.0
2019-11-11 12:10,50.6304383333333,-96.9807783333333,3.9,5.9,278,1008.01,-17.2,78,1.01,0.0,1038.39,360.0
2019-11-11 12:20,50.630425,-96.980755,3.7,5.4,274,1008.09,-17.3,78,0.99,0.0,1038.48,360.0
2019-11-11 12:30,50.63044,-96.98079,3.5,5.3,285,1008.20,-17.3,78,0.97,0.0,1038.60,360.0
2019-11-11 12:40,50.63045,-96.9807733333333,2.9,4.8,279,1008.28,-17.2,78,0.95,0.0,1038.68,360.0
2019-11-11 12:50,50.6304516666667,-96.9807733333333,3.4,5.1,271,1008.41,-17.2,78,0.93,0.0,1038.80,360.0
2019-11-11 13:00,50.6304516666667,-96.9807716666667,3.4,4.5,261,1008.50,-17.3,78,0.91,0.0,1038.90,360.0
2019-11-11 13:10,50.63045,-96.9807733333333,3.4,4.8,246,1008.52,-17.4,78,0.89,0.0,1038.92,360.0
2019-11-11 13:20,50.63045,-96.980775,3.4,4.6,241,1008.52,-17.5,79,0.88,0.0,1038.93,360.0
2019-11-11 13:30,50.6304483333333,-96.98077,3.9,5.0,237,1008.62,-17.7,79,0.87,0.0,1039.03,360.0
2019-11-11 13:40,50.6304416666667,-96.9807783333333,4.2,4.9,241,1008.68,-17.8,79,0.86,0.0,1039.09,360.0
2019-11-11 13:50,50.6304483333333,-96.9807716666667,3.5,5.0,256,1008.73,-18.1,79,0.86,0.0,1039.16,360.0
2019-11-11 14:00,50.6304483333333,-96.98077,3.7,5.6,264,1008.83,-18.0,79,0.85,0.0,1039.27,72.3
2019-11-11 14:10,50.6304483333333,-96.9807666666667,3.8,6.1,265,1008.87,-17.7,79,0.85,0.0,1039.30,72.3
2019-11-11 14:20,50.6304483333333,-96.9807616666667,3.3,5.3,259,1009.02,-17.4,77,0.86,0.0,1039.44,72.3
2019-11-11 14:30,50.6304483333333,-96.9807616666667,3.4,5.0,258,1009.13,-17.3,76,0.87,0.0,1039.54,72.3
2019-11-11 14:40,50.6304483333333,-96.980765,3.4,5.7,262,1009.14,-17.1,75,0.88,0.0,1039.54,72.3
2019-11-11 14:50,50.6304483333333,-96.980765,3.5,5.3,280,1009.11,-16.6,75,0.88,0.0,1039.48,72.3
2019-11-11 15:00,50.63045,-96.9807683333333,4.1,6.7,287,1009.17,-16.1,74,0.89,0.0,1039.52,90.0
2019-11-11 15:10,50.6304483333333,-96.9807666666667,4.8,7.8,287,1009.24,-15.5,73,0.92,0.0,1039.56,90.0
2019-11-11 15:20,50.6304483333333,-96.9807683333333,5.7,10.2,298,1009.28,-15.0,72,0.94,0.0,1039.59,90.0
2019-11-11 15:30,50.6304483333333,-96.9807683333333,7.0,13.0,300,1009.30,-14.8,71,0.96,0.0,1039.60,90.0
2019-11-11 15:40,50.630465,-96.980765,7.6,12.9,300,1009.36,-14.6,70,0.97,0.0,1039.66,90.0
2019-11-11 15:50,50.63046,-96.98077,7.7,12.2,298,1009.34,-14.5,70,0.98,0.0,1039.63,90.0
2019-11-11 16:00,50.630455,-96.980765,7.6,11.3,296,1009.44,-14.3,69,1.00,0.0,1039.71,90.0
2019-11-11 16:10,50.6304533333333,-96.9807633333333,7.6,11.7,297,1009.45,-14.2,68,1.00,0.0,1039.69,90.0
2019-11-11 16:20,50.6304516666667,-96.9807666666667,7.1,11.7,294,1009.43,-14.0,67,1.01,0.0,1039.65,90.0
2019-11-11 16:30,50.63045,-96.9807683333333,7.1,11.3,294,1009.41,-13.6,65,1.01,0.0,1039.60,90.0
2019-11-11 16:40,50.6304416666667,-96.98078,8.7,11.6,299,1009.34,-13.5,64,1.01,0.0,1039.50,90.0
2019-11-11 16:50,50.63045,-96.9807766666667,7.8,11.4,302,1009.34,-13.4,63,1.02,0.0,1039.45,90.0
2019-11-11 17:00,50.6304566666667,-96.98077,8.5,11.9,308,1009.33,-13.1,61,1.02,0.0,1039.39,38.0
2019-11-11 17:10,50.6304516666667,-96.9807716666667,7.0,10.5,304,1009.32,-12.9,60,1.02,0.0,1039.34,38.0
2019-11-11 17:20,50.6304266666667,-96.9807516666667,6.3,9.2,303,1009.32,-12.6,58,1.02,0.0,1039.31,38.0
2019-11-11 17:30,50.630445,-96.9807566666667,6.6,11.2,317,1009.32,-12.4,57,1.02,0.0,1039.29,38.0
2019-11-11 17:40,50.6304516666667,-96.9807616666667,7.3,11.3,295,1009.26,-12.4,56,1.02,0.0,1039.22,38.0
2019-11-11 17:50,50.6304516666667,-96.98076,7.0,10.8,304,1009.24,-12.3,55,1.03,0.0,1039.18,38.0
2019-11-11 18:00,50.6304533333333,-96.98076,7.1,12.0,294,1009.22,-12.2,54,1.04,0.0,1039.15,90.0
2019-11-11 18:10,50.6304516666667,-96.9807616666667,7.1,10.8,280,1009.14,-12.1,53,1.05,0.0,1039.04,90.0
2019-11-11 18:20,50.6304533333333,-96.9807633333333,8.8,11.9,285,1009.02,-11.9,52,1.05,0.0,1038.90,90.0
2019-11-11 18:30,50.6304533333333,-96.9807633333333,6.1,10.0,296,1009.00,-11.6,51,1.06,0.0,1038.85,90.0
2019-11-11 18:40,50.6304533333333,-96.9807633333333,6.9,11.2,274,1008.95,-11.6,51,1.07,0.0,1038.79,90.0
2019-11-11 18:50,50.630455,-96.9807633333333,8.0,12.4,290,1008.86,-11.5,49,1.07,0.0,1038.68,90.0
2019-11-11 19:00,50.630455,-96.9807633333333,8.9,12.6,286,1008.81,-11.5,49,1.08,0.0,1038.61,0.0
2019-11-11 19:10,50.6304583333333,-96.98078,6.9,11.8,291,1008.78,-11.3,49,1.08,0.0,1038.56,0.0
2019-11-11 19:20,50.6304583333333,-96.9807533333333,7.3,12.8,283,1008.72,-11.4,49,1.08,0.0,1038.48,0.0
2019-11-11 19:30,50.6304583333333,-96.9807533333333,7.1,12.0,275,1008.66,-11.6,48,1.08,0.0,1038.44,0.0
2019-11-11 19:40,50.6304566666667,-96.9807566666667,7.5,10.8,284,1008.54,-11.8,47,1.09,0.0,1038.32,0.0
2019-11-11 19:50,50.6304566666667,-96.980755,5.9,9.1,294,1008.55,-12.0,48,1.09,0.0,1038.33,0.0
2019-11-11 20:00,50.6304566666667,-96.9807566666667,5.5,8.7,299,1008.48,-12.1,50,1.09,0.0,1038.26,90.0
2019-11-11 20:10,50.6304566666667,-96.9807583333333,5.4,8.0,299,1008.39,-11.9,48,1.09,0.0,1038.15,90.0
2019-11-11 20:20,50.6304583333333,-96.9807583333333,5.5,8.6,294,1008.37,-11.9,49,1.10,0.0,1038.11,90.0
2019-11-11 20:30,50.63045,-96.9807683333333,6.2,10.0,312,1008.29,-11.5,48,1.12,0.0,1038.00,90.0
2019-11-11 20:40,50.630445,-96.9807616666667,7.1,10.2,310,1008.26,-11.5,49,1.13,0.0,1037.97,90.0
2019-11-11 20:50,50.6304466666667,-96.980765,4.9,8.5,288,1008.24,-11.5,50,1.15,0.0,1037.95,90.0
2019-11-11 21:00,50.6304433333333,-96.9807566666667,5.5,8.3,298,1008.12,-11.1,49,1.16,0.0,1037.79,360.0
2019-11-11 21:10,50.6304483333333,-96.98076,5.4,7.9,305,1008.04,-10.9,50,1.17,0.0,1037.70,360.0
2019-11-11 21:20,50.63045,-96.9807583333333,7.3,11.0,245,1008.07,-11.4,50,1.18,0.0,1037.77,360.0
2019-11-11 21:30,50.63045,-96.98076,6.5,11.6,263,1007.94,-11.0,50,1.20,0.0,1037.62,360.0
2019-11-11 21:40,50.6304733333333,-96.9807833333333,6.1,10.9,260,1007.89,-11.0,49,1.21,0.0,1037.58,360.0
2019-11-11 21:50,50.6304666666667,-96.9807716666667,7.3,10.7,247,1007.84,-11.4,50,1.22,0.0,1037.56,360.0
2019-11-11 22:00,50.630465,-96.9807666666667,7.0,9.9,246,1007.81,-11.8,50,1.23,0.0,1037.54,360.0
2019-11-11 22:10,50.63046,-96.9807683333333,6.3,8.5,241,1007.77,-12.1,51,1.23,0.0,1037.52,360.0
2019-11-11 22:20,50.63046,-96.9807666666667,5.5,7.3,246,1007.71,-12.2,52,1.24,0.0,1037.44,360.0
2019-11-11 22:30,50.6304566666667,-96.9807733333333,5.6,8.1,239,1007.65,-12.5,52,1.24,0.0,1037.40,360.0
2019-11-11 22:40,50.6304633333333,-96.9807716666667,4.8,6.1,234,1007.65,-12.6,54,1.26,0.0,1037.40,360.0
2019-11-11 22:50,50.6304583333333,-96.980765,4.9,6.5,225,1007.62,-12.9,56,1.27,0.0,1037.37,360.0
2019-11-11 23:00,50.63046,-96.980765,6.0,7.9,220,1007.62,-13.2,58,1.27,0.0,1037.37,347.4
2019-11-11 23:10,50.6304583333333,-96.9807683333333,5.1,7.1,227,1007.63,-13.3,59,1.28,0.0,1037.41,347.4
2019-11-11 23:20,50.63046,-96.9807683333333,4.7,5.8,227,1007.58,-13.5,59,1.28,0.0,1037.35,347.4
2019-11-11 23:30,50.6304616666667,-96.9807683333333,5.2,6.7,214,1007.55,-13.6,60,1.29,0.0,1037.33,347.4
